This demonstration page uses our WeatherBlox Daily Observations layout. Learn more.

Left ArrowRight Arrow

44.89941, -97.11507

Hourly Observations for February 16, 2021

Temp ( °F °C ) Dew Point ( °F °C ) Humidity (%) Winds ( mph kmh ) Pressure ( in mb ) Visibility ( mi km ) Precip ( " mm )
12:53 am 00:53 Clear -14 -25.6 -20 -28.9 74 74 ESE 3 6 30.30 1026 10 16 0.00 0.00
1:53 am 01:53 Clear -13 -25 -21 -29.4 67 67 SSE 3 6 30.28 1026 10 16 0.00 0.00
2:53 am 02:53 Clear -15 -26.1 -21 -29.4 74 74 S 3 6 30.27 1025 10 16 0.00 0.00
3:53 am 03:53 Clear -16 -26.7 -22 -30 74 74 SSE 5 7 30.25 1025 10 16 0.00 0.00
4:53 am 04:53 Clear -18 -27.8 -24 -31.1 73 73 SSE 6 9 30.26 1025 10 16 0.00 0.00
5:53 am 05:53 Clear -18 -27.8 -24 -31.1 73 73 SSE 5 7 30.26 1025 10 16 0.00 0.00
6:53 am 06:53 Clear -18 -27.8 -23 -30.6 77 77 SSE 5 7 30.25 1025 10 16 0.00 0.00
7:53 am 07:53 Sunny -17 -27.2 -23 -30.6 73 73 SE 6 9 30.25 1024 10 16 0.00 0.00
8:53 am 08:53 Sunny -15 -26.1 -21 -29.4 74 74 SSE 7 11 30.26 1025 10 16 0.00 0.00
9:53 am 09:53 Sunny -12 -24.4 -19 -28.3 70 70 SE 9 15 30.25 1024 10 16 0.00 0.00
10:53 am 10:53 Sunny -8 -22.2 -17 -27.2 64 64 SSE 12 19 30.24 1024 10 16 0.00 0.00
11:53 am 11:53 Sunny -7 -21.7 -17 -27.2 61 61 SSE 13 20 30.26 1025 10 16 0.00 0.00
12:53 pm 12:53 Sunny -4 -20 -15 -26.1 58 58 SSE 12 19 30.24 1024 10 16 0.00 0.00
1:53 pm 13:53 Sunny -3 -19.4 -15 -26.1 56 56 SSE 13 20 30.21 1023 10 16 0.00 0.00
2:53 pm 14:53 Sunny -1 -18.3 -14 -25.6 53 53 SSE 13 20 30.19 1023 10 16 0.00 0.00
3:53 pm 15:53 Cloudy -1 -18.3 -14 -25.6 53 53 SE 12 19 30.19 1022 10 16 0.00 0.00
4:53 pm 16:53 Cloudy -2 -18.9 -14 -25.6 56 56 SE 12 19 30.19 1022 10 16 0.00 0.00
5:53 pm 17:53 Cloudy -2 -18.9 -14 -25.6 56 56 SSE 13 20 30.19 1022 10 16 0.00 0.00
6:53 pm 18:53 Clear -3 -19.4 -14 -25.6 58 58 SE 9 15 30.19 1022 10 16 0.00 0.00
7:53 pm 19:53 Cloudy -3 -19.4 -13 -25 61 61 SSE 10 17 30.20 1023 10 16 0.00 0.00
8:53 pm 20:53 Cloudy -2 -18.9 -13 -25 59 59 SSE 13 20 30.19 1022 10 16 0.00 0.00
9:53 pm 21:53 Cloudy -2 -18.9 -13 -25 59 59 SSE 13 20 30.19 1022 10 16 0.00 0.00
10:53 pm 22:53 Cloudy -3 -19.4 -12 -24.4 65 65 SSE 10 17 30.19 1022 10 16 0.00 0.00
11:53 pm 23:53 Cloudy -3 -19.4 -12 -24.4 65 65 SSE 13 20 30.19 1022 10 16 0.00 0.00

Powered by AerisWeather